N1615A PTPN-PTSA

Flight info

Callsign N1615A
Flight time 0h 50m
Altitude 37000
Route AXTEN AMZAP
Aircraft CL60/M-SBDE1E2E3FGHIJ4J5J7M3RWXYZ/LB1V1D1

Departure

Time 2026-04-24 01:01
Airport Pohnpei International Airport (PTPN)

Arrival

Time 2026-04-24 01:51
Airport Kosrae International Airport (PTSA)
Time Latitude Longitude Altitude Speed Heading
2026-04-24 00:43 6.98194 158.20393 28 ft 0 kts 177°
2026-04-24 00:59 6.98183 158.20377 26 ft 8 kts 278°
2026-04-24 00:59 6.98243 158.20354 26 ft 11 kts 358°
2026-04-24 00:59 6.98400 158.20360 26 ft 23 kts 357°
2026-04-24 00:59 6.98506 158.20319 26 ft 11 kts 271°
2026-04-24 01:00 6.98502 158.20216 25 ft 18 kts 266°
2026-04-24 01:00 6.98494 158.20091 20 ft 11 kts 282°
2026-04-24 01:00 6.98515 158.20090 20 ft 0 kts 90°
2026-04-24 01:00 6.98516 158.20204 25 ft 55 kts 90°
2026-04-24 01:01 6.98512 158.20940 28 ft 149 kts 91°
2026-04-24 01:01 6.98499 158.22104 590 ft 178 kts 91°
2026-04-24 01:01 6.98515 158.23320 1664 ft 180 kts 90°
2026-04-24 01:01 6.98138 158.24528 2610 ft 194 kts 121°
2026-04-24 01:02 6.97322 158.25627 3722 ft 204 kts 125°
2026-04-24 01:02 6.96451 158.26698 4906 ft 204 kts 125°
2026-04-24 01:02 6.95731 158.27974 5538 ft 228 kts 108°
2026-04-24 01:02 6.95194 158.29558 6164 ft 253 kts 106°
2026-04-24 01:03 6.94623 158.31262 7180 ft 262 kts 107°
2026-04-24 01:03 6.94031 158.33005 8247 ft 269 kts 107°
2026-04-24 01:03 6.93425 158.34795 9174 ft 278 kts 107°
2026-04-24 01:03 6.92791 158.36667 9663 ft 284 kts 107°
2026-04-24 01:04 6.92148 158.38556 9846 ft 283 kts 107°
2026-04-24 01:04 6.91509 158.40428 9878 ft 283 kts 107°
2026-04-24 01:04 6.90869 158.42300 9874 ft 281 kts 107°
2026-04-24 01:04 6.90233 158.44170 9877 ft 280 kts 107°
2026-04-24 01:05 6.89601 158.46022 9871 ft 280 kts 107°
2026-04-24 01:05 6.88959 158.47900 9869 ft 282 kts 107°
2026-04-24 01:05 6.88298 158.49838 10297 ft 303 kts 107°
2026-04-24 01:05 6.87631 158.51788 11589 ft 298 kts 107°
2026-04-24 01:06 6.86959 158.53754 12780 ft 296 kts 107°
2026-04-24 01:06 6.86300 158.55678 13710 ft 301 kts 107°
2026-04-24 01:06 6.85592 158.57754 14129 ft 325 kts 107°
2026-04-24 01:06 6.84827 158.59990 14584 ft 344 kts 108°
2026-04-24 01:07 6.84038 158.62294 15010 ft 362 kts 108°
2026-04-24 01:07 6.83197 158.64745 15605 ft 373 kts 108°
2026-04-24 01:07 6.82332 158.67265 16301 ft 380 kts 108°
2026-04-24 01:07 6.81474 158.69785 16983 ft 386 kts 108°
2026-04-24 01:08 6.80601 158.72362 17659 ft 392 kts 108°
2026-04-24 01:08 6.79751 158.74870 18335 ft 395 kts 108°
2026-04-24 01:08 6.78878 158.77447 18985 ft 400 kts 108°
2026-04-24 01:08 6.78069 158.79834 19559 ft 404 kts 108°
2026-04-24 01:09 6.77322 158.82037 20090 ft 407 kts 108°
2026-04-24 01:09 6.76680 158.83931 20551 ft 409 kts 108°
2026-04-24 01:09 6.75771 158.86612 21159 ft 412 kts 108°
2026-04-24 01:09 6.74870 158.89269 21712 ft 417 kts 108°
2026-04-24 01:10 6.74090 158.91569 22162 ft 420 kts 108°
2026-04-24 01:10 6.73292 158.93922 22632 ft 424 kts 108°
2026-04-24 01:10 6.72354 158.96684 23201 ft 427 kts 108°
2026-04-24 01:10 6.71427 158.99414 23751 ft 430 kts 108°
2026-04-24 01:11 6.70455 159.02277 24318 ft 433 kts 108°
2026-04-24 01:11 6.69492 159.05112 24855 ft 435 kts 108°
2026-04-24 01:11 6.68498 159.08040 25388 ft 438 kts 108°
2026-04-24 01:11 6.67520 159.10918 25855 ft 441 kts 108°
2026-04-24 01:12 6.66518 159.13869 26327 ft 444 kts 108°
2026-04-24 01:12 6.65521 159.16803 26790 ft 447 kts 108°
2026-04-24 01:12 6.64506 159.19788 27228 ft 450 kts 108°
2026-04-24 01:12 6.63490 159.22777 27655 ft 452 kts 108°
2026-04-24 01:13 6.62473 159.25769 28068 ft 455 kts 108°
2026-04-24 01:13 6.61439 159.28807 28496 ft 457 kts 108°
2026-04-24 01:13 6.60408 159.31839 28931 ft 458 kts 109°
2026-04-24 01:13 6.59375 159.34876 29287 ft 461 kts 109°
2026-04-24 01:14 6.58330 159.37944 29708 ft 462 kts 109°
2026-04-24 01:14 6.57282 159.41023 30217 ft 460 kts 109°
2026-04-24 01:14 6.56251 159.44051 30766 ft 457 kts 109°
2026-04-24 01:14 6.55269 159.46936 31289 ft 454 kts 109°
2026-04-24 01:15 6.54243 159.49948 31821 ft 452 kts 109°
2026-04-24 01:15 6.53224 159.52940 32284 ft 450 kts 109°
2026-04-24 01:15 6.52258 159.55777 32722 ft 449 kts 109°
2026-04-24 01:15 6.51256 159.58716 33199 ft 447 kts 109°
2026-04-24 01:16 6.50246 159.61681 33657 ft 446 kts 109°
2026-04-24 01:16 6.49316 159.64409 34052 ft 445 kts 109°
2026-04-24 01:16 6.48294 159.67407 34485 ft 444 kts 109°
2026-04-24 01:16 6.47296 159.70334 34882 ft 443 kts 109°
2026-04-24 01:17 6.46347 159.73114 35252 ft 443 kts 109°
2026-04-24 01:17 6.45376 159.75961 35594 ft 442 kts 109°
2026-04-24 01:17 6.44383 159.78873 35903 ft 443 kts 109°
2026-04-24 01:17 6.43462 159.81570 36205 ft 442 kts 109°
2026-04-24 01:18 6.42445 159.84551 36507 ft 442 kts 109°
2026-04-24 01:18 6.41445 159.87479 36782 ft 443 kts 109°
2026-04-24 01:18 6.40491 159.90271 36860 ft 447 kts 109°
2026-04-24 01:19 6.38453 159.96236 36867 ft 454 kts 109°
2026-04-24 01:19 6.36443 160.02116 36875 ft 456 kts 109°
2026-04-24 01:20 6.34441 160.07968 36867 ft 456 kts 109°
2026-04-24 01:20 6.32402 160.13928 36866 ft 454 kts 109°
2026-04-24 01:21 6.30405 160.19751 36865 ft 454 kts 109°
2026-04-24 01:21 6.28427 160.25510 36867 ft 454 kts 109°
2026-04-24 01:22 6.26414 160.31372 36865 ft 454 kts 109°
2026-04-24 01:22 6.24417 160.37190 36865 ft 454 kts 109°
2026-04-24 01:23 6.22396 160.43080 36863 ft 455 kts 109°
2026-04-24 01:23 6.20399 160.48898 36864 ft 454 kts 109°
2026-04-24 01:24 6.18567 160.54236 36863 ft 454 kts 109°
2026-04-24 01:24 6.16546 160.60121 36865 ft 454 kts 109°
2026-04-24 01:25 6.14622 160.65724 36864 ft 454 kts 109°
2026-04-24 01:25 6.12625 160.71539 36865 ft 454 kts 109°
2026-04-24 01:26 6.10649 160.77290 36863 ft 454 kts 109°
2026-04-24 01:26 6.08656 160.83092 36869 ft 455 kts 109°
2026-04-24 01:27 6.06588 160.89107 36866 ft 455 kts 109°
2026-04-24 01:27 6.04526 160.95103 36867 ft 455 kts 109°
2026-04-24 01:28 6.02444 161.01157 36865 ft 455 kts 109°
2026-04-24 01:28 6.00358 161.07217 36866 ft 455 kts 109°
2026-04-24 01:28 5.99322 161.10226 36757 ft 457 kts 109°
2026-04-24 01:29 5.98323 161.13127 36278 ft 456 kts 109°
2026-04-24 01:29 5.97323 161.16032 35753 ft 450 kts 109°
2026-04-24 01:29 5.96316 161.18955 35196 ft 447 kts 109°
2026-04-24 01:29 5.95312 161.21870 34621 ft 444 kts 109°
2026-04-24 01:30 5.94335 161.24705 34056 ft 444 kts 109°
2026-04-24 01:30 5.93307 161.27690 33457 ft 444 kts 108°
2026-04-24 01:30 5.92335 161.30507 32888 ft 444 kts 109°
2026-04-24 01:30 5.91395 161.33215 32370 ft 444 kts 109°
2026-04-24 01:31 5.90340 161.36263 31730 ft 446 kts 109°
2026-04-24 01:31 5.89339 161.39156 31158 ft 448 kts 109°
2026-04-24 01:31 5.88329 161.42072 30566 ft 450 kts 109°
2026-04-24 01:31 5.87296 161.45055 29980 ft 453 kts 109°
2026-04-24 01:32 5.86284 161.47948 29689 ft 451 kts 109°
2026-04-24 01:32 5.84189 161.53833 29769 ft 452 kts 111°
2026-04-24 01:32 5.83036 161.56676 29469 ft 453 kts 112°
2026-04-24 01:33 5.82004 161.59502 28679 ft 445 kts 108°
2026-04-24 01:33 5.81078 161.62462 27779 ft 437 kts 107°
2026-04-24 01:33 5.80718 161.63621 27419 ft 435 kts 107°
2026-04-24 01:33 5.80135 161.65475 26815 ft 431 kts 107°
2026-04-24 01:34 5.79195 161.68413 25816 ft 426 kts 108°
2026-04-24 01:34 5.78347 161.71021 24918 ft 421 kts 107°
2026-04-24 01:34 5.77409 161.73784 24220 ft 409 kts 108°
2026-04-24 01:34 5.76491 161.76456 23698 ft 404 kts 108°
2026-04-24 01:35 5.75611 161.79024 23150 ft 409 kts 108°
2026-04-24 01:35 5.74707 161.81657 22609 ft 406 kts 108°
2026-04-24 01:35 5.73783 161.84340 22064 ft 403 kts 108°
2026-04-24 01:35 5.72869 161.86997 21529 ft 400 kts 108°
2026-04-24 01:36 5.71968 161.89613 20995 ft 397 kts 108°
2026-04-24 01:36 5.71066 161.92227 20467 ft 393 kts 107°
2026-04-24 01:36 5.70176 161.94810 19944 ft 390 kts 108°
2026-04-24 01:36 5.69287 161.97386 19421 ft 386 kts 108°
2026-04-24 01:37 5.68572 161.99455 19007 ft 383 kts 108°
2026-04-24 01:37 5.67915 162.01360 18627 ft 381 kts 107°
2026-04-24 01:37 5.67140 162.03603 18174 ft 378 kts 108°
2026-04-24 01:37 5.66169 162.06412 17614 ft 374 kts 108°
2026-04-24 01:38 5.65317 162.08874 17140 ft 370 kts 108°
2026-04-24 01:38 5.64328 162.11736 16665 ft 370 kts 107°
2026-04-24 01:38 5.63446 162.14285 16129 ft 365 kts 108°
2026-04-24 01:38 5.62678 162.16505 15689 ft 360 kts 107°
2026-04-24 01:39 5.61862 162.18863 15208 ft 356 kts 107°
2026-04-24 01:39 5.61057 162.21188 14741 ft 353 kts 107°
2026-04-24 01:39 5.60280 162.23433 14293 ft 349 kts 107°
2026-04-24 01:39 5.59494 162.25702 13834 ft 345 kts 107°
2026-04-24 01:40 5.58705 162.27977 13375 ft 341 kts 107°
2026-04-24 01:40 5.57977 162.30080 12953 ft 338 kts 107°
2026-04-24 01:40 5.57191 162.32346 12493 ft 335 kts 107°
2026-04-24 01:40 5.56462 162.34450 12069 ft 332 kts 107°
2026-04-24 01:41 5.55718 162.36595 11634 ft 329 kts 107°
2026-04-24 01:41 5.54964 162.38770 11194 ft 326 kts 107°
2026-04-24 01:41 5.54214 162.40932 10760 ft 323 kts 107°
2026-04-24 01:41 5.53473 162.43068 10330 ft 320 kts 107°
2026-04-24 01:42 5.52750 162.45151 9911 ft 317 kts 107°
2026-04-24 01:42 5.52024 162.47237 9493 ft 314 kts 107°
2026-04-24 01:42 5.50974 162.49155 9085 ft 309 kts 123°
2026-04-24 01:42 5.49662 162.50822 8677 ft 302 kts 124°
2026-04-24 01:43 5.48375 162.52460 8280 ft 295 kts 124°
2026-04-24 01:43 5.47113 162.54069 7893 ft 288 kts 124°
2026-04-24 01:43 5.45878 162.55644 7511 ft 282 kts 124°
2026-04-24 01:43 5.44667 162.57190 7141 ft 276 kts 124°
2026-04-24 01:44 5.43486 162.58694 6774 ft 271 kts 124°
2026-04-24 01:44 5.42324 162.60178 6415 ft 265 kts 124°
2026-04-24 01:44 5.41190 162.61623 6067 ft 260 kts 124°
2026-04-24 01:44 5.40067 162.63057 5720 ft 258 kts 124°
2026-04-24 01:45 5.38957 162.64473 5384 ft 258 kts 124°
2026-04-24 01:45 5.37845 162.65894 5044 ft 258 kts 124°
2026-04-24 01:45 5.36720 162.67329 4693 ft 258 kts 124°
2026-04-24 01:45 5.35612 162.68742 4346 ft 256 kts 124°
2026-04-24 01:46 5.34508 162.70152 4013 ft 254 kts 124°
2026-04-24 01:46 5.33421 162.71538 3678 ft 254 kts 124°
2026-04-24 01:46 5.32323 162.72939 3333 ft 253 kts 124°
2026-04-24 01:46 5.31228 162.74336 3004 ft 251 kts 124°
2026-04-24 01:47 5.30150 162.75711 2672 ft 250 kts 124°
2026-04-24 01:47 5.29075 162.77103 2337 ft 249 kts 120°
2026-04-24 01:47 5.28440 162.78667 2026 ft 241 kts 95°
2026-04-24 01:47 5.28586 162.80333 1956 ft 240 kts 72°
2026-04-24 01:48 5.29226 162.81897 1957 ft 242 kts 65°
2026-04-24 01:48 5.29942 162.83443 1961 ft 244 kts 66°
2026-04-24 01:48 5.30637 162.84967 1962 ft 231 kts 66°
2026-04-24 01:48 5.31285 162.86401 1815 ft 219 kts 66°
2026-04-24 01:49 5.31909 162.87782 1557 ft 208 kts 66°
2026-04-24 01:49 5.32467 162.89017 1274 ft 183 kts 66°
2026-04-24 01:49 5.32957 162.90102 1078 ft 155 kts 66°
2026-04-24 01:49 5.33366 162.91007 894 ft 130 kts 66°
2026-04-24 01:50 5.33734 162.91817 721 ft 126 kts 65°
2026-04-24 01:50 5.34062 162.92631 536 ft 123 kts 69°
2026-04-24 01:50 5.34340 162.93449 397 ft 124 kts 72°
2026-04-24 01:50 5.34658 162.94243 259 ft 127 kts 61°
2026-04-24 01:51 5.35112 162.94954 112 ft 114 kts 57°
2026-04-24 01:51 5.35560 162.95630 31 ft 110 kts 56°
2026-04-24 01:51 5.35899 162.96127 25 ft 31 kts 58°
2026-04-24 01:51 5.35950 162.96216 22 ft 9 kts 28°
2026-04-24 01:52 5.35959 162.96219 22 ft 8 kts
2026-04-24 01:52 5.35966 162.96213 22 ft 0 kts 280°
2026-04-24 01:52 5.35965 162.96210 22 ft 1 kts 258°
2026-04-24 01:53 5.35963 162.96205 22 ft 3 kts 231°
2026-04-24 01:53 5.35955 162.96196 23 ft 5 kts 225°
2026-04-24 01:53 5.35947 162.96190 23 ft 6 kts 224°
2026-04-24 01:54 5.35924 162.96167 24 ft 8 kts 226°
2026-04-24 01:55 5.35902 162.96143 24 ft 3 kts 228°
2026-04-24 01:56 5.35900 162.96140 25 ft 0 kts 229°
2026-04-24 01:56 5.35897 162.96137 25 ft 2 kts 230°
2026-04-24 01:56 5.35873 162.96103 25 ft 9 kts 234°
2026-04-24 01:56 5.35831 162.96046 26 ft 19 kts 236°
2026-04-24 01:57 5.35796 162.95995 27 ft 22 kts 236°
2026-04-24 01:57 5.35788 162.95982 27 ft 22 kts 236°
2026-04-24 01:57 5.35696 162.95857 28 ft 20 kts 231°
2026-04-24 01:57 5.35639 162.95776 29 ft 20 kts 237°
2026-04-24 01:58 5.35604 162.95717 29 ft 22 kts 240°
2026-04-24 01:58 5.35523 162.95589 29 ft 23 kts 234°
2026-04-24 01:58 5.35416 162.95544 28 ft 14 kts 144°
2026-04-24 01:59 5.35371 162.95599 28 ft 7 kts 134°
2026-04-24 01:59 5.35339 162.95605 27 ft 0 kts 224°
2026-04-24 01:59 5.35338 162.95605 27 ft 0 kts 224°
2026-04-24 02:30 5.35342 162.95573 27 ft 7 kts 320°
2026-04-24 02:31 5.35384 162.95555 28 ft 5 kts 326°
2026-04-24 02:31 5.35388 162.95550 28 ft 0 kts 314°
2026-04-24 02:31 5.35391 162.95549 28 ft 0 kts 347°
2026-04-24 02:31 5.35421 162.95538 29 ft 12 kts 332°
2026-04-24 02:32 5.35430 162.95462 29 ft 15 kts 236°
2026-04-24 02:32 5.35360 162.95357 28 ft 19 kts 237°
2026-04-24 02:32 5.35276 162.95247 29 ft 15 kts 215°
2026-04-24 02:32 5.35261 162.95192 29 ft 8 kts 19°
2026-04-24 02:33 5.35301 162.95248 28 ft 30 kts 56°
2026-04-24 02:33 5.35614 162.95712 29 ft 126 kts 56°
2026-04-24 02:33 5.36232 162.96605 317 ft 173 kts 57°
2026-04-24 02:33 5.36923 162.97594 1113 ft 180 kts 57°
2026-04-24 02:34 5.37658 162.98645 1980 ft 192 kts 59°
2026-04-24 02:34 5.38388 162.99777 3042 ft 204 kts 59°
2026-04-24 02:34 5.39212 163.01045 3801 ft 232 kts 59°
2026-04-24 02:34 5.40153 163.02420 4815 ft 247 kts 57°
2026-04-24 02:35 5.41155 163.03830 5996 ft 254 kts 57°
2026-04-24 02:35 5.42175 163.05264 7155 ft 259 kts 57°
2026-04-24 02:35 5.43219 163.06729 8297 ft 264 kts 57°
2026-04-24 02:35 5.44308 163.08260 9227 ft 275 kts 57°
2026-04-24 02:36 5.45443 163.09854 9710 ft 281 kts 57°
2026-04-24 02:36 5.46572 163.11436 9897 ft 283 kts 57°
2026-04-24 02:36 5.47768 163.13113 9943 ft 300 kts 57°
2026-04-24 02:36 5.49012 163.14859 9943 ft 312 kts 56°
2026-04-24 02:37 5.50284 163.16641 9940 ft 312 kts 56°
2026-04-24 02:37 5.51555 163.18422 9940 ft 310 kts 56°
2026-04-24 02:37 5.52810 163.20178 9940 ft 310 kts 56°
2026-04-24 02:37 5.54064 163.21935 9946 ft 310 kts 57°
2026-04-24 02:38 5.55328 163.23704 9944 ft 309 kts 56°
2026-04-24 02:38 5.56580 163.25456 9941 ft 310 kts 56°
2026-04-24 02:38 5.57860 163.27249 9940 ft 311 kts 57°
2026-04-24 02:38 5.59112 163.29002 9939 ft 310 kts 56°
2026-04-24 02:39 5.60390 163.30794 9943 ft 310 kts 56°
2026-04-24 02:39 5.61651 163.32561 9937 ft 311 kts 56°
2026-04-24 02:39 5.62922 163.34341 9939 ft 311 kts 56°
2026-04-24 02:39 5.64207 163.36142 10107 ft 326 kts 56°
2026-04-24 02:40 5.65534 163.38003 11089 ft 331 kts 56°
2026-04-24 02:40 5.66869 163.39871 12295 ft 327 kts 56°
2026-04-24 02:40 5.68192 163.41725 13314 ft 329 kts 55°
2026-04-24 02:40 5.69548 163.43626 14154 ft 336 kts 55°
2026-04-24 02:41 5.70919 163.45548 14926 ft 343 kts 55°
2026-04-24 02:41 5.72311 163.47499 15686 ft 349 kts 55°
2026-04-24 02:41 5.73748 163.49513 16487 ft 354 kts 54°
2026-04-24 02:41 5.75192 163.51537 17214 ft 360 kts 54°
2026-04-24 02:42 5.76674 163.53615 17880 ft 367 kts 54°
2026-04-24 02:42 5.78172 163.55713 18627 ft 370 kts 54°
2026-04-24 02:42 5.79666 163.57809 19347 ft 372 kts 54°
2026-04-24 02:42 5.81190 163.59946 20024 ft 376 kts 53°
2026-04-24 02:43 5.82723 163.62097 20659 ft 379 kts 53°
2026-04-24 02:43 5.84281 163.64282 21243 ft 384 kts 53°
2026-04-24 02:43 5.85865 163.66504 21796 ft 389 kts 53°
2026-04-24 02:43 5.87446 163.68723 22366 ft 392 kts 53°
2026-04-24 02:44 5.89050 163.70973 22921 ft 396 kts 53°
2026-04-24 02:44 5.90682 163.73263 23512 ft 398 kts 53°
2026-04-24 02:44 5.92312 163.75552 24050 ft 401 kts 53°
2026-04-24 02:44 5.93937 163.77834 24577 ft 404 kts 54°
2026-04-24 02:45 5.95590 163.80154 25120 ft 406 kts 54°
2026-04-24 02:45 5.97229 163.82455 25615 ft 408 kts 54°
2026-04-24 02:45 5.98906 163.84811 26065 ft 411 kts 54°
2026-04-24 02:45 6.00584 163.87169 26521 ft 414 kts 54°
2026-04-24 02:46 6.02267 163.89533 26917 ft 417 kts 55°
2026-04-24 02:46 6.03954 163.91904 27362 ft 419 kts 55°
2026-04-24 02:46 6.05658 163.94298 27757 ft 421 kts 55°
2026-04-24 02:46 6.07382 163.96722 28143 ft 424 kts 55°
2026-04-24 02:47 6.09106 163.99142 28493 ft 426 kts 55°
2026-04-24 02:47 6.10843 164.01582 28849 ft 429 kts 55°
2026-04-24 02:47 6.12589 164.04034 29216 ft 431 kts 55°
2026-04-24 02:47 6.14355 164.06516 29551 ft 433 kts 55°
2026-04-24 02:48 6.16129 164.09009 29858 ft 436 kts 55°
2026-04-24 02:48 6.17893 164.11488 30200 ft 437 kts 56°
2026-04-24 02:48 6.19676 164.13995 30529 ft 438 kts 56°
2026-04-24 02:48 6.21458 164.16502 30832 ft 440 kts 56°
2026-04-24 02:49 6.23260 164.19035 31133 ft 441 kts 56°
2026-04-24 02:49 6.25038 164.21538 31374 ft 444 kts 56°
2026-04-24 02:49 6.26856 164.24095 31622 ft 445 kts 56°
2026-04-24 02:49 6.28654 164.26625 31886 ft 446 kts 56°
2026-04-24 02:50 6.30461 164.29169 32135 ft 447 kts 56°
2026-04-24 02:50 6.32285 164.31735 32354 ft 449 kts 56°
2026-04-24 02:50 6.34110 164.34305 32545 ft 450 kts 56°
2026-04-24 02:50 6.35940 164.36883 32748 ft 452 kts 56°
2026-04-24 02:51 6.37760 164.39445 32937 ft 453 kts 56°
2026-04-24 02:51 6.39612 164.42055 33133 ft 454 kts 56°
2026-04-24 02:51 6.41462 164.44663 33481 ft 452 kts 56°
2026-04-24 02:51 6.43283 164.47232 33839 ft 449 kts 56°
2026-04-24 02:52 6.45101 164.49797 34215 ft 447 kts 56°
2026-04-24 02:52 6.46921 164.52362 34575 ft 445 kts 56°
2026-04-24 02:52 6.48705 164.54877 34875 ft 443 kts 56°
2026-04-24 02:52 6.50505 164.57417 35123 ft 443 kts 56°
2026-04-24 02:53 6.52294 164.59941 35352 ft 443 kts 56°
2026-04-24 02:53 6.54099 164.62488 35588 ft 443 kts 56°
2026-04-24 02:53 6.55883 164.65006 35779 ft 443 kts 56°
2026-04-24 02:53 6.57680 164.67541 35966 ft 444 kts 56°
2026-04-24 02:54 6.59488 164.70094 36168 ft 444 kts 56°
2026-04-24 02:54 6.61298 164.72649 36373 ft 444 kts 57°
2026-04-24 02:54 6.63095 164.75186 36555 ft 444 kts 57°
2026-04-24 02:54 6.64900 164.77733 36713 ft 444 kts 56°
2026-04-24 02:55 6.66707 164.80284 36858 ft 445 kts 57°
2026-04-24 02:55 6.68488 164.82800 37028 ft 445 kts 57°
2026-04-24 02:55 6.70280 164.85330 37204 ft 444 kts 57°
2026-04-24 02:55 6.72037 164.87813 37411 ft 443 kts 57°
2026-04-24 02:56 6.73694 164.90153 37610 ft 442 kts 57°
2026-04-24 02:56 6.75485 164.92685 37750 ft 442 kts 57°
2026-04-24 02:56 6.77262 164.95195 37872 ft 443 kts 57°
2026-04-24 02:56 6.79054 164.97728 37970 ft 444 kts 57°
2026-04-24 02:57 6.80871 165.00296 38134 ft 443 kts 57°
2026-04-24 02:57 6.82642 165.02799 38257 ft 443 kts 57°
2026-04-24 02:57 6.84449 165.05354 38423 ft 442 kts 58°
2026-04-24 02:57 6.86212 165.07846 38588 ft 441 kts 57°
2026-04-24 02:58 6.90165 165.12723 38357 ft 455 kts 44°
2026-04-24 02:58 6.92898 165.14468 37516 ft 478 kts 26°
2026-04-24 02:58 6.95847 165.15826 38310 ft 457 kts 30°
2026-04-24 02:59 6.98544 165.17452 38848 ft 447 kts 38°
2026-04-24 02:59 7.00921 165.19457 38841 ft 446 kts 48°
2026-04-24 02:59 7.04552 165.24532 38846 ft 444 kts 63°
2026-04-24 03:00 7.07598 165.30019 38841 ft 448 kts 63°
2026-04-24 03:00 7.10616 165.35567 38842 ft 449 kts 67°
2026-04-24 03:01 7.13133 165.41342 38843 ft 452 kts 62°
2026-04-24 03:01 7.16889 165.46518 38841 ft 456 kts 54°
2026-04-24 03:02 7.20804 165.51614 38848 ft 457 kts 55°
2026-04-24 03:02 7.24662 165.56702 38848 ft 456 kts 55°
2026-04-24 03:03 7.28497 165.61826 38844 ft 456 kts 56°
2026-04-24 03:03 7.32297 165.67042 38852 ft 457 kts 57°
2026-04-24 03:04 7.36064 165.72240 38852 ft 458 kts 57°
2026-04-24 03:04 7.39826 165.77449 38851 ft 458 kts 57°
2026-04-24 03:05 7.43192 165.82899 38848 ft 456 kts 62°
2026-04-24 03:05 7.46544 165.88388 38854 ft 456 kts 60°
2026-04-24 03:06 7.49964 165.93803 38856 ft 456 kts 60°
2026-04-24 03:06 7.53445 165.99144 38850 ft 455 kts 59°
2026-04-24 03:07 7.57012 166.04443 38856 ft 455 kts 58°
2026-04-24 03:07 7.60665 166.09662 38807 ft 456 kts 56°
2026-04-24 03:08 7.66378 166.17473 37540 ft 457 kts 56°
2026-04-24 03:08 7.68260 166.20058 36887 ft 454 kts 56°
2026-04-24 03:09 7.70124 166.22618 36277 ft 453 kts 56°
2026-04-24 03:09 7.72012 166.25209 35710 ft 451 kts 56°
2026-04-24 03:09 7.73886 166.27780 35050 ft 453 kts 56°
2026-04-24 03:09 7.75763 166.30354 34486 ft 454 kts 55°
2026-04-24 03:10 7.77638 166.32924 33871 ft 456 kts 55°
2026-04-24 03:10 7.79526 166.35512 33266 ft 458 kts 55°
2026-04-24 03:10 7.81421 166.38107 32656 ft 460 kts 55°
2026-04-24 03:10 7.83324 166.40715 32050 ft 463 kts 54°
2026-04-24 03:11 7.85250 166.43353 31429 ft 465 kts 54°
2026-04-24 03:11 7.87172 166.45984 30806 ft 467 kts 54°
2026-04-24 03:11 7.89124 166.48657 30178 ft 470 kts 53°
2026-04-24 03:11 7.91083 166.51340 29549 ft 472 kts 53°
2026-04-24 03:12 7.93040 166.54021 28920 ft 474 kts 53°
2026-04-24 03:12 7.94995 166.56697 28290 ft 473 kts 52°
2026-04-24 03:12 7.96953 166.59380 27658 ft 469 kts 52°
2026-04-24 03:12 7.98884 166.62025 27038 ft 463 kts 52°
2026-04-24 03:13 8.00785 166.64629 26426 ft 458 kts 52°
2026-04-24 03:13 8.02661 166.67198 25824 ft 453 kts 53°
2026-04-24 03:13 8.04540 166.69774 25214 ft 448 kts 53°
2026-04-24 03:13 8.06323 166.72218 24644 ft 443 kts 53°
2026-04-24 03:14 8.08140 166.74707 24056 ft 439 kts 52°
2026-04-24 03:14 8.09948 166.77185 23478 ft 434 kts 52°
2026-04-24 03:14 8.11626 166.79486 22939 ft 431 kts 53°
2026-04-24 03:14 8.13401 166.81920 22363 ft 427 kts 53°
2026-04-24 03:15 8.15135 166.84299 21820 ft 423 kts 53°
2026-04-24 03:15 8.16878 166.86688 21246 ft 419 kts 53°
2026-04-24 03:15 8.18620 166.89078 20687 ft 414 kts 53°
2026-04-24 03:15 8.20327 166.91419 20139 ft 410 kts 53°
2026-04-24 03:16 8.22017 166.93736 19593 ft 405 kts 53°
2026-04-24 03:16 8.23688 166.96030 19057 ft 401 kts 53°
2026-04-24 03:16 8.25348 166.98308 18523 ft 397 kts 53°
2026-04-24 03:16 8.26960 167.00520 18006 ft 393 kts 53°
2026-04-24 03:17 8.28589 167.02757 17482 ft 390 kts 53°
2026-04-24 03:17 8.30201 167.04971 16961 ft 386 kts 53°
2026-04-24 03:17 8.31798 167.07164 16599 ft 380 kts 53°
2026-04-24 03:17 8.33394 167.09355 16031 ft 381 kts 53°
2026-04-24 03:18 8.34955 167.11499 15538 ft 375 kts 53°
2026-04-24 03:18 8.36492 167.13611 15038 ft 371 kts 53°
2026-04-24 03:18 8.38018 167.15709 14545 ft 368 kts 53°
2026-04-24 03:18 8.39540 167.17799 14058 ft 363 kts 53°
2026-04-24 03:19 8.41014 167.19826 13585 ft 355 kts 53°
2026-04-24 03:19 8.42469 167.21826 13115 ft 347 kts 53°
2026-04-24 03:19 8.43898 167.23790 12654 ft 339 kts 54°
2026-04-24 03:19 8.45271 167.25678 12215 ft 332 kts 54°
2026-04-24 03:20 8.46647 167.27571 11769 ft 325 kts 54°
2026-04-24 03:20 8.47962 167.29378 11354 ft 318 kts 54°
2026-04-24 03:20 8.49274 167.31183 10929 ft 312 kts 54°
2026-04-24 03:20 8.50548 167.32936 10518 ft 306 kts 54°
2026-04-24 03:21 8.51797 167.34654 10094 ft 296 kts 54°
2026-04-24 03:21 8.53008 167.36320 9735 ft 285 kts 55°
2026-04-24 03:21 8.54176 167.37927 9380 ft 278 kts 55°
2026-04-24 03:21 8.55325 167.39508 8987 ft 276 kts 55°
2026-04-24 03:22 8.56458 167.41067 8627 ft 272 kts 56°
2026-04-24 03:22 8.57578 167.42610 8265 ft 269 kts 56°
2026-04-24 03:22 8.58685 167.44133 7906 ft 267 kts 56°
2026-04-24 03:22 8.59784 167.45648 7553 ft 267 kts 56°
2026-04-24 03:23 8.60895 167.47179 7194 ft 266 kts 56°
2026-04-24 03:23 8.61982 167.48675 6828 ft 261 kts 56°
2026-04-24 03:23 8.63039 167.50130 6496 ft 253 kts 56°
2026-04-24 03:23 8.64077 167.51559 6161 ft 245 kts 56°
2026-04-24 03:24 8.65077 167.52934 5821 ft 237 kts 57°
2026-04-24 03:24 8.66031 167.54257 5531 ft 226 kts 59°
2026-04-24 03:24 8.66653 167.55656 5212 ft 215 kts 74°
2026-04-24 03:24 8.67122 167.57103 4841 ft 214 kts 73°
2026-04-24 03:25 8.67577 167.58522 4453 ft 201 kts 73°
2026-04-24 03:25 8.67975 167.59821 3864 ft 191 kts 73°
2026-04-24 03:25 8.68398 167.61070 3211 ft 183 kts 72°
2026-04-24 03:25 8.68763 167.62251 2634 ft 173 kts 75°
2026-04-24 03:26 8.69074 167.63394 2128 ft 163 kts 76°
2026-04-24 03:26 8.69372 167.64506 1653 ft 157 kts 73°
2026-04-24 03:26 8.69672 167.65553 1337 ft 147 kts 74°
2026-04-24 03:26 8.69953 167.66473 1106 ft 125 kts 73°
2026-04-24 03:27 8.70190 167.67293 960 ft 120 kts 73°
2026-04-24 03:27 8.70446 167.68108 821 ft 120 kts 72°
2026-04-24 03:27 8.70697 167.68922 693 ft 121 kts 73°
2026-04-24 03:27 8.70947 167.69745 545 ft 121 kts 74°
2026-04-24 03:28 8.71197 167.70560 390 ft 122 kts 73°
2026-04-24 03:28 8.71455 167.71387 232 ft 123 kts 72°
2026-04-24 03:28 8.71715 167.72212 71 ft 123 kts 73°
2026-04-24 03:28 8.71957 167.72995 19 ft 102 kts 73°
2026-04-24 03:29 8.72146 167.73596 18 ft 78 kts 72°
2026-04-24 03:29 8.72230 167.73863 26 ft 28 kts 72°
2026-04-24 03:29 8.72314 167.73982 29 ft 11 kts 340°
2026-04-24 03:29 8.72371 167.73962 31 ft 9 kts 346°
2026-04-24 03:30 8.72458 167.73943 34 ft 15 kts 346°
2026-04-24 03:30 8.72556 167.73924 43 ft 12 kts
2026-04-24 03:30 8.72629 167.73955 51 ft 10 kts 64°
2026-04-24 03:30 8.72580 167.73984 45 ft 2 kts 245°
2026-04-24 03:31 8.72578 167.73981 45 ft 0 kts 252°